This is the latest recevied weather packets stored in our database for station/object KJ5JYX. If no packets are shown the sender has not sent any weather packets the latest 10 day(s).
| Time | Temp. | Humidity | Pressure | Rain* | Wind** | Luminosity | Snow |
|---|---|---|---|---|---|---|---|
| 1777570034 | 16.67° C | 97% | 1014.8 hPa | 8.89 mm | - | 7 W/m² | - |
| 1777569730 | 16.67° C | 96% | 1015.3 hPa | 1.78 mm | - | 3 W/m² | - |
| 1777569425 | 16.67° C | 96% | 1014 hPa | 1.78 mm | - | 8 W/m² | - |
| 1777569123 | 16.67° C | 96% | 1013.1 hPa | 0 mm | - | 18 W/m² | - |
| 1777568820 | 16.67° C | 96% | 1013.2 hPa | 0 mm | - | 28 W/m² | - |
| 1777568517 | 16.67° C | 95% | 1013.2 hPa | 0 mm | - | 21 W/m² | - |
| 1777568213 | 17.22° C | 95% | 1013.7 hPa | 0 mm | - | 36 W/m² | - |
| 1777567910 | 17.22° C | 95% | 1014.2 hPa | 0 mm | - | 86 W/m² | - |
| 1777567606 | 17.22° C | 95% | 1014.7 hPa | 1.27 mm | - | 113 W/m² | - |
| 1777567304 | 17.78° C | 94% | 1014.7 hPa | 1.27 mm | - | 73 W/m² | - |
| 1777567002 | 17.22° C | 94% | 1014.6 hPa | 1.27 mm | - | 114 W/m² | - |
| 1777566700 | 17.22° C | 94% | 1015.1 hPa | 0 mm | - | 99 W/m² | - |
| 1777566397 | 17.22° C | 95% | 1014.5 hPa | 0 mm | - | 100 W/m² | - |
| 1777566094 | 17.22° C | 95% | 1014.7 hPa | 0 mm | - | 78 W/m² | - |
| 1777565789 | 16.67° C | 95% | 1015.1 hPa | 0 mm | - | 61 W/m² | - |
| 1777565486 | 16.67° C | 95% | 1015.4 hPa | 0 mm | - | 44 W/m² | - |
| 1777565182 | 16.67° C | 95% | 1015 hPa | 0 mm | - | 59 W/m² | - |
| 1777564878 | 16.67° C | 95% | 1015.6 hPa | 0 mm | - | 29 W/m² | - |
| 1777564573 | 16.67° C | 95% | 1015.9 hPa | 0 mm | - | 33 W/m² | - |
| 1777564269 | 16.67° C | 95% | 1015.8 hPa | 0 mm | - | 27 W/m² | - |
| 1777563966 | 16.67° C | 95% | 1016.1 hPa | 0 mm | - | 15 W/m² | - |
| 1777563662 | 16.67° C | 95% | 1016.3 hPa | 0 mm | - | 14 W/m² | - |
| 1777563362 | 17.22° C | 95% | 1016 hPa | 0 mm | - | 20 W/m² | - |
| 1777563058 | 17.22° C | 95% | 1015.8 hPa | 0 mm | - | 29 W/m² | - |
| 1777562754 | 17.22° C | 96% | 1016 hPa | 0 mm | - | 27 W/m² | - |
* Rain latest hour (hover to see other rain measurements)
** Current wind speed in m/s (hover to see current wind gust speed)